Torna al catalogo

GNOMES-4

AttivoMeteoSSO
NORAD 58462·PAYLOAD·🇺🇸 United States

Lanciato Dec 1, 2023 da Vandenberg Space Force Base

Loading…

Prossimi Passaggi (prossime 24 ore)

TLE

AggiornatoSource: Space-Track

Epoca: Sep 14, 2026, 14:41 UTC

1 58462U 23185A   26257.61227518  .00002408  00000-0  19158-3 0  9999
2 58462  97.4735 311.4658 0011411  28.6783 331.5067 15.01269977152709

Traccia GNOMES-4 in tempo reale con AllMySat

Download on the App Store